| time (UTC) | temp C | wind direction | speed KPH | gust KPH | rain 1hr cm | rain 24hr cm | rain mn cm | humidity % | barometer mb |
| 20260510034536 | 19 | 0 | 0.0 | 0.0 | 0.00 | 0.13 | 0.13 | 86 | 1013.7 |
| 20260510034022 | 19 | 0 | 0.0 | 0.0 | 0.00 | 0.13 | 0.13 | 86 | 1013.7 |
| 20260510033519 | 19 | 0 | 0.0 | 0.0 | 0.00 | 0.13 | 0.13 | 85 | 1013.6 |
| 20260510033046 | 19 | 0 | 0.0 | 0.0 | 0.00 | 0.13 | 0.13 | 85 | 1013.6 |
| 20260510032519 | 19 | 0 | 0.0 | 0.0 | 0.00 | 0.13 | 0.13 | 85 | 1013.5 |
| 20260510032019 | 19 | 0 | 0.0 | 0.0 | 0.00 | 0.13 | 0.13 | 85 | 1013.6 |
| 20260510031538 | 20 | 0 | 0.0 | 0.0 | 0.00 | 0.13 | 0.13 | 85 | 1013.7 |
| 20260510031019 | 20 | 0 | 0.0 | 0.0 | 0.00 | 0.13 | 0.13 | 85 | 1013.6 |
| 20260510030519 | 20 | 0 | 0.0 | 0.0 | 0.00 | 0.13 | 0.13 | 85 | 1013.6 |
| 20260510030034 | 20 | 0 | 0.0 | 0.0 | 0.00 | 0.13 | 0.13 | 84 | 1013.6 |
| 20260510025522 | 20 | 0 | 0.0 | 0.0 | 0.00 | 0.13 | 0.13 | 84 | 1013.6 |
| 20260510025020 | 20 | 0 | 0.0 | 0.0 | 0.00 | 0.13 | 0.13 | 84 | 1013.5 |
| 20260510024535 | 20 | 0 | 0.0 | 0.0 | 0.00 | 0.13 | 0.13 | 84 | 1013.5 |
| 20260510024022 | 20 | 0 | 0.0 | 0.0 | 0.00 | 0.13 | 0.13 | 84 | 1013.6 |
| 20260510023520 | 20 | 0 | 0.0 | 0.0 | 0.00 | 0.13 | 0.13 | 84 | 1013.6 |
| 20260510023036 | 20 | 0 | 0.0 | 0.0 | 0.00 | 0.13 | 0.13 | 84 | 1013.6 |
| 20260510022519 | 20 | 0 | 0.0 | 0.0 | 0.00 | 0.13 | 0.13 | 83 | 1013.6 |
| 20260510022019 | 20 | 0 | 0.0 | 0.0 | 0.00 | 0.13 | 0.13 | 83 | 1013.6 |
| 20260510021616 | 20 | 0 | 0.0 | 0.0 | 0.00 | 0.13 | 0.13 | 83 | 1013.6 |
| 20260510021019 | 20 | 0 | 0.0 | 0.0 | 0.00 | 0.13 | 0.13 | 83 | 1013.6 |
| 20260510020519 | 20 | 0 | 0.0 | 0.0 | 0.00 | 0.13 | 0.13 | 82 | 1013.6 |
| 20260510020035 | 20 | 0 | 0.0 | 0.0 | 0.00 | 0.13 | 0.13 | 82 | 1013.5 |
| 20260510015521 | 20 | 0 | 0.0 | 0.0 | 0.00 | 0.13 | 0.13 | 82 | 1013.4 |
| 20260510015018 | 20 | 0 | 0.0 | 0.0 | 0.00 | 0.13 | 0.13 | 82 | 1013.3 |
| 20260510014548 | 20 | 0 | 0.0 | 0.0 | 0.00 | 0.13 | 0.13 | 82 | 1013.3 |
| 20260510014020 | 21 | 0 | 0.0 | 0.0 | 0.00 | 0.13 | 0.13 | 82 | 1013.2 |
| 20260510013522 | 21 | 0 | 0.0 | 0.0 | 0.00 | 0.13 | 0.13 | 82 | 1013.2 |
| 20260510013033 | 21 | 0 | 0.0 | 0.0 | 0.00 | 0.13 | 0.13 | 81 | 1013.1 |
| 20260510012519 | 21 | 0 | 0.0 | 0.0 | 0.00 | 0.13 | 0.13 | 81 | 1013.0 |
| 20260510012019 | 21 | 0 | 0.0 | 0.0 | 0.00 | 0.13 | 0.13 | 81 | 1012.9 |
| 20260510011534 | 21 | 0 | 0.0 | 0.0 | 0.00 | 0.13 | 0.13 | 81 | 1013.1 |
| 20260510011021 | 21 | 0 | 0.0 | 0.0 | 0.00 | 0.13 | 0.13 | 80 | 1012.8 |
| 20260510010522 | 21 | 0 | 0.0 | 0.0 | 0.00 | 0.13 | 0.13 | 80 | 1012.7 |
| 20260510010043 | 21 | 0 | 0.0 | 0.0 | 0.00 | 0.13 | 0.13 | 80 | 1012.6 |
| 20260510005522 | 21 | 0 | 0.0 | 0.0 | 0.00 | 0.15 | 0.13 | 79 | 1012.5 |
| 20260510005022 | 21 | 0 | 0.0 | 0.0 | 0.00 | 0.15 | 0.13 | 79 | 1012.5 |
| 20260510004535 | 21 | 0 | 0.0 | 0.0 | 0.00 | 0.15 | 0.13 | 79 | 1012.5 |
| 20260510004019 | 21 | 0 | 0.0 | 0.0 | 0.00 | 0.15 | 0.13 | 78 | 1012.5 |
| 20260510003519 | 21 | 0 | 0.0 | 0.0 | 0.00 | 0.15 | 0.13 | 78 | 1012.3 |
| 20260510003036 | 21 | 0 | 0.0 | 0.0 | 0.00 | 0.15 | 0.13 | 78 | 1012.2 |
| 20260510002520 | 21 | 0 | 0.0 | 0.0 | 0.00 | 0.15 | 0.13 | 77 | 1012.1 |
| 20260510002019 | 22 | 0 | 0.0 | 0.0 | 0.00 | 0.15 | 0.13 | 76 | 1012.0 |
| 20260510001534 | 22 | 0 | 0.0 | 0.0 | 0.00 | 0.15 | 0.13 | 76 | 1011.9 |
| 20260510001022 | 22 | 0 | 0.0 | 0.0 | 0.00 | 0.15 | 0.13 | 76 | 1011.8 |
| 20260510000520 | 22 | 0 | 0.0 | 0.0 | 0.00 | 0.15 | 0.13 | 76 | 1011.8 |
| 20260510000036 | 22 | 0 | 0.0 | 0.0 | 0.00 | 0.15 | 0.13 | 75 | 1011.7 |
| 20260509235520 | 22 | 0 | 0.0 | 0.0 | 0.00 | 0.15 | 0.13 | 75 | 1011.6 |
| 20260509235019 | 22 | 0 | 0.0 | 0.0 | 0.00 | 0.15 | 0.13 | 75 | 1011.6 |
| 20260509234538 | 22 | 0 | 0.0 | 0.0 | 0.00 | 0.15 | 0.13 | 75 | 1011.6 |
| 20260509234021 | 22 | 0 | 0.0 | 0.0 | 0.00 | 0.15 | 0.13 | 75 | 1011.5 |
| 20260509233519 | 22 | 0 | 0.0 | 0.0 | 0.00 | 0.15 | 0.13 | 74 | 1011.4 |
| 20260509233036 | 22 | 0 | 0.0 | 0.0 | 0.00 | 0.15 | 0.13 | 74 | 1011.4 |
| 20260509232521 | 23 | 0 | 0.0 | 3.2 | 0.00 | 0.15 | 0.13 | 74 | 1011.2 |
| 20260509232019 | 23 | 0 | 0.0 | 3.2 | 0.00 | 0.15 | 0.13 | 73 | 1011.2 |
| 20260509231537 | 23 | 0 | 0.0 | 4.8 | 0.00 | 0.15 | 0.13 | 73 | 1011.3 |
| 20260509231019 | 23 | 0 | 0.0 | 4.8 | 0.00 | 0.15 | 0.13 | 73 | 1011.2 |
| 20260509230519 | 23 | 277 | 0.0 | 3.2 | 0.00 | 0.15 | 0.13 | 73 | 1011.3 |
| 20260509230040 | 23 | 0 | 0.0 | 3.2 | 0.00 | 0.15 | 0.13 | 73 | 1011.2 |
| 20260509225519 | 23 | 0 | 0.0 | 3.2 | 0.00 | 0.15 | 0.13 | 73 | 1011.1 |
| 20260509225018 | 23 | 0 | 0.0 | 6.4 | 0.00 | 0.15 | 0.13 | 72 | 1011.2 |
| 20260509224536 | 23 | 0 | 0.0 | 6.4 | 0.00 | 0.15 | 0.13 | 72 | 1011.2 |
| 20260509224019 | 23 | 273 | 0.0 | 1.6 | 0.00 | 0.15 | 0.13 | 73 | 1011.2 |
| 20260509223519 | 23 | 0 | 0.0 | 1.6 | 0.00 | 0.15 | 0.13 | 73 | 1011.1 |
| 20260509223032 | 23 | 0 | 0.0 | 1.6 | 0.00 | 0.15 | 0.13 | 73 | 1011.3 |
| 20260509222519 | 23 | 0 | 0.0 | 4.8 | 0.00 | 0.15 | 0.13 | 73 | 1011.3 |
| 20260509222019 | 23 | 0 | 0.0 | 4.8 | 0.00 | 0.15 | 0.13 | 73 | 1011.3 |
| 20260509221538 | 23 | 0 | 0.0 | 1.6 | 0.00 | 0.15 | 0.13 | 73 | 1011.2 |
| 20260509221021 | 23 | 0 | 0.0 | 3.2 | 0.03 | 0.15 | 0.13 | 73 | 1011.3 |
| 20260509220522 | 23 | 0 | 0.0 | 3.2 | 0.03 | 0.15 | 0.13 | 72 | 1011.1 |
| 20260509220039 | 23 | 208 | 0.0 | 3.2 | 0.03 | 0.15 | 0.13 | 72 | 1011.2 |
| 20260509215522 | 23 | 0 | 0.0 | 3.2 | 0.03 | 0.18 | 0.13 | 73 | 1011.1 |
| 20260509215019 | 23 | 0 | 0.0 | 1.6 | 0.03 | 0.18 | 0.13 | 73 | 1011.2 |
| 20260509214539 | 23 | 0 | 0.0 | 4.8 | 0.03 | 0.18 | 0.13 | 73 | 1011.4 |
| 20260509214019 | 23 | 0 | 0.0 | 6.4 | 0.03 | 0.18 | 0.13 | 73 | 1011.2 |
| 20260509213519 | 23 | 288 | 0.0 | 8.0 | 0.03 | 0.18 | 0.13 | 72 | 1011.2 |
| 20260509213037 | 23 | 283 | 0.0 | 9.7 | 0.03 | 0.18 | 0.13 | 73 | 1011.2 |
| 20260509212520 | 23 | 287 | 0.0 | 9.7 | 0.03 | 0.18 | 0.13 | 72 | 1011.2 |
| 20260509212022 | 24 | 294 | 1.6 | 9.7 | 0.03 | 0.18 | 0.13 | 72 | 1011.1 |
| 20260509211537 | 23 | 0 | 0.0 | 6.4 | 0.03 | 0.18 | 0.13 | 72 | 1011.1 |
| 20260509211019 | 23 | 0 | 0.0 | 8.0 | 0.00 | 0.15 | 0.10 | 72 | 1011.3 |
| 20260509210521 | 23 | 0 | 0.0 | 8.0 | 0.00 | 0.15 | 0.10 | 72 | 1011.3 |
| 20260509210040 | 23 | 89 | 0.0 | 4.8 | 0.00 | 0.15 | 0.10 | 72 | 1011.2 |
| 20260509205521 | 23 | 0 | 0.0 | 12.9 | 0.00 | 0.15 | 0.10 | 72 | 1011.2 |
| 20260509205019 | 23 | 0 | 0.0 | 14.5 | 0.00 | 0.15 | 0.10 | 73 | 1011.1 |
| 20260509204539 | 23 | 0 | 0.0 | 14.5 | 0.00 | 0.15 | 0.10 | 73 | 1011.2 |
| 20260509204020 | 23 | 261 | 1.6 | 14.5 | 0.00 | 0.15 | 0.10 | 73 | 1011.3 |
| 20260509203519 | 23 | 0 | 0.0 | 9.7 | 0.00 | 0.15 | 0.10 | 74 | 1011.3 |
| 20260509203036 | 23 | 0 | 0.0 | 0.0 | 0.00 | 0.15 | 0.10 | 74 | 1011.5 |
| 20260509202519 | 23 | 0 | 0.0 | 8.0 | 0.00 | 0.15 | 0.10 | 74 | 1011.5 |
| 20260509202021 | 23 | 0 | 0.0 | 8.0 | 0.00 | 0.15 | 0.10 | 73 | 1011.6 |
| 20260509201539 | 23 | 0 | 0.0 | 11.3 | 0.00 | 0.15 | 0.10 | 73 | 1011.6 |
| 20260509201019 | 23 | 256 | 0.0 | 12.9 | 0.00 | 0.15 | 0.10 | 73 | 1011.6 |
| 20260509200519 | 23 | 0 | 0.0 | 12.9 | 0.00 | 0.15 | 0.10 | 72 | 1011.6 |
| 20260509200039 | 23 | 0 | 0.0 | 12.9 | 0.00 | 0.15 | 0.10 | 72 | 1011.6 |
| 20260509195520 | 23 | 156 | 0.0 | 9.7 | 0.00 | 0.15 | 0.10 | 72 | 1011.6 |
| 20260509195019 | 23 | 0 | 0.0 | 9.7 | 0.00 | 0.15 | 0.10 | 72 | 1011.6 |
| 20260509194547 | 23 | 0 | 0.0 | 6.4 | 0.00 | 0.15 | 0.10 | 72 | 1011.6 |
| 20260509194019 | 23 | 0 | 0.0 | 6.4 | 0.00 | 0.15 | 0.10 | 72 | 1011.7 |
| 20260509193519 | 23 | 0 | 0.0 | 8.0 | 0.00 | 0.15 | 0.10 | 72 | 1011.7 |
| 20260509193040 | 23 | 347 | 0.0 | 8.0 | 0.00 | 0.15 | 0.10 | 72 | 1011.7 |
| 20260509192519 | 23 | 0 | 0.0 | 11.3 | 0.00 | 0.15 | 0.10 | 72 | 1011.8 |
| 20260509192019 | 23 | 0 | 1.6 | 11.3 | 0.00 | 0.15 | 0.10 | 72 | 1012.0 |
| 20260509191538 | 23 | 0 | 0.0 | 6.4 | 0.00 | 0.15 | 0.10 | 73 | 1012.0 |
| 20260509191023 | 23 | 259 | 0.0 | 6.4 | 0.00 | 0.15 | 0.10 | 72 | 1012.0 |
| 20260509190519 | 23 | 0 | 0.0 | 4.8 | 0.00 | 0.15 | 0.10 | 72 | 1012.1 |
| 20260509190037 | 23 | 0 | 0.0 | 6.4 | 0.00 | 0.15 | 0.10 | 72 | 1012.1 |
| 20260509185519 | 23 | 0 | 0.0 | 6.4 | 0.00 | 0.18 | 0.10 | 72 | 1012.2 |
| 20260509185019 | 23 | 289 | 0.0 | 12.9 | 0.00 | 0.18 | 0.10 | 71 | 1012.0 |
| 20260509184536 | 23 | 0 | 0.0 | 12.9 | 0.00 | 0.18 | 0.10 | 72 | 1012.1 |
| 20260509184020 | 23 | 0 | 1.6 | 12.9 | 0.00 | 0.18 | 0.10 | 72 | 1012.0 |
| 20260509183519 | 23 | 0 | 0.0 | 6.4 | 0.00 | 0.18 | 0.10 | 73 | 1012.1 |
| 20260509183036 | 23 | 0 | 0.0 | 6.4 | 0.00 | 0.18 | 0.10 | 73 | 1011.8 |
| 20260509182520 | 23 | 258 | 0.0 | 6.4 | 0.00 | 0.18 | 0.10 | 73 | 1012.1 |
| 20260509182022 | 23 | 0 | 0.0 | 4.8 | 0.00 | 0.18 | 0.10 | 73 | 1012.2 |
| 20260509181538 | 23 | 0 | 0.0 | 6.4 | 0.00 | 0.18 | 0.10 | 72 | 1012.2 |
| 20260509181021 | 23 | 0 | 0.0 | 11.3 | 0.00 | 0.18 | 0.10 | 72 | 1012.3 |
| 20260509180518 | 23 | 279 | 0.0 | 11.3 | 0.00 | 0.18 | 0.10 | 72 | 1012.3 |
| 20260509180049 | 23 | 323 | 0.0 | 11.3 | 0.00 | 0.18 | 0.10 | 72 | 1012.3 |
| 20260509175519 | 23 | 0 | 1.6 | 11.3 | 0.00 | 0.18 | 0.10 | 73 | 1012.5 |
| 20260509175019 | 23 | 0 | 0.0 | 8.0 | 0.00 | 0.18 | 0.10 | 73 | 1012.2 |
| 20260509174537 | 23 | 290 | 0.0 | 6.4 | 0.00 | 0.18 | 0.10 | 73 | 1012.1 |
| 20260509174019 | 23 | 0 | 0.0 | 12.9 | 0.00 | 0.18 | 0.10 | 72 | 1012.2 |
| 20260509173520 | 23 | 0 | 0.0 | 12.9 | 0.00 | 0.18 | 0.10 | 72 | 1012.2 |
| 20260509173041 | 23 | 265 | 1.6 | 9.7 | 0.00 | 0.18 | 0.10 | 72 | 1012.1 |
| 20260509172523 | 23 | 0 | 0.0 | 6.4 | 0.00 | 0.18 | 0.10 | 72 | 1012.1 |
| 20260509172021 | 23 | 186 | 1.6 | 9.7 | 0.00 | 0.18 | 0.10 | 72 | 1012.1 |
| 20260509171539 | 23 | 0 | 0.0 | 11.3 | 0.00 | 0.18 | 0.10 | 73 | 1012.3 |
| 20260509171020 | 23 | 0 | 1.6 | 11.3 | 0.00 | 0.18 | 0.10 | 73 | 1012.4 |
| 20260509170519 | 23 | 0 | 0.0 | 6.4 | 0.00 | 0.18 | 0.10 | 74 | 1012.3 |
| 20260509170038 | 23 | 290 | 0.0 | 8.0 | 0.00 | 0.18 | 0.10 | 75 | 1012.3 |
| 20260509165522 | 23 | 0 | 0.0 | 8.0 | 0.00 | 0.20 | 0.10 | 75 | 1012.5 |
| 20260509165019 | 23 | 0 | 0.0 | 12.9 | 0.00 | 0.20 | 0.10 | 74 | 1012.5 |
| 20260509164538 | 23 | 0 | 0.0 | 12.9 | 0.00 | 0.20 | 0.10 | 75 | 1012.6 |
| 20260509164021 | 22 | 0 | 1.6 | 12.9 | 0.00 | 0.20 | 0.10 | 75 | 1012.8 |
| 20260509163523 | 22 | 0 | 0.0 | 11.3 | 0.00 | 0.20 | 0.10 | 76 | 1012.8 |
| 20260509163040 | 22 | 0 | 0.0 | 9.7 | 0.00 | 0.20 | 0.10 | 76 | 1012.8 |
| 20260509162520 | 22 | 0 | 1.6 | 8.0 | 0.00 | 0.20 | 0.10 | 77 | 1012.8 |
| 20260509162022 | 22 | 0 | 0.0 | 8.0 | 0.00 | 0.20 | 0.10 | 78 | 1012.8 |
| 20260509161537 | 22 | 0 | 0.0 | 11.3 | 0.00 | 0.20 | 0.10 | 78 | 1012.8 |
| 20260509161019 | 22 | 0 | 0.0 | 11.3 | 0.00 | 0.20 | 0.10 | 80 | 1012.8 |
| 20260509160521 | 21 | 0 | 0.0 | 8.0 | 0.00 | 0.20 | 0.10 | 81 | 1012.9 |
| 20260509160040 | 21 | 286 | 0.0 | 6.4 | 0.00 | 0.20 | 0.10 | 82 | 1013.1 |
| 20260509155521 | 21 | 0 | 0.0 | 6.4 | 0.00 | 0.20 | 0.10 | 82 | 1013.2 |
| 20260509155021 | 21 | 0 | 0.0 | 6.4 | 0.00 | 0.20 | 0.10 | 82 | 1013.2 |
| 20260509154545 | 21 | 0 | 0.0 | 4.8 | 0.00 | 0.20 | 0.10 | 83 | 1013.3 |
| 20260509154022 | 21 | 0 | 0.0 | 3.2 | 0.00 | 0.20 | 0.10 | 83 | 1013.3 |
| 20260509153519 | 21 | 0 | 0.0 | 3.2 | 0.00 | 0.20 | 0.10 | 83 | 1013.3 |
| 20260509153051 | 20 | 0 | 0.0 | 3.2 | 0.00 | 0.20 | 0.10 | 84 | 1013.1 |
| 20260509152519 | 20 | 118 | 0.0 | 4.8 | 0.00 | 0.20 | 0.10 | 84 | 1013.0 |
| 20260509152019 | 20 | 0 | 0.0 | 4.8 | 0.00 | 0.20 | 0.10 | 84 | 1013.1 |
| 20260509151536 | 20 | 0 | 0.0 | 3.2 | 0.00 | 0.20 | 0.10 | 85 | 1013.1 |
| 20260509151019 | 20 | 0 | 0.0 | 3.2 | 0.00 | 0.20 | 0.10 | 85 | 1013.2 |
| 20260509150519 | 20 | 0 | 0.0 | 3.2 | 0.00 | 0.20 | 0.10 | 85 | 1013.4 |
| 20260509150036 | 20 | 0 | 0.0 | 3.2 | 0.00 | 0.20 | 0.10 | 85 | 1013.4 |
| 20260509145523 | 20 | 0 | 0.0 | 4.8 | 0.00 | 0.20 | 0.10 | 85 | 1013.4 |
| 20260509145020 | 20 | 0 | 0.0 | 4.8 | 0.00 | 0.20 | 0.10 | 86 | 1013.4 |
| 20260509144534 | 20 | 0 | 0.0 | 4.8 | 0.00 | 0.20 | 0.10 | 86 | 1013.5 |
| 20260509144021 | 20 | 0 | 0.0 | 3.2 | 0.00 | 0.20 | 0.10 | 86 | 1013.6 |
| 20260509143521 | 19 | 360 | 0.0 | 0.0 | 0.00 | 0.20 | 0.10 | 86 | 1013.5 |
| 20260509143038 | 19 | 0 | 0.0 | 0.0 | 0.00 | 0.20 | 0.10 | 86 | 1013.6 |
| 20260509142519 | 19 | 0 | 0.0 | 0.0 | 0.00 | 0.20 | 0.10 | 85 | 1013.6 |
| 20260509142019 | 19 | 0 | 0.0 | 0.0 | 0.00 | 0.20 | 0.10 | 86 | 1013.7 |
| 20260509141542 | 19 | 0 | 0.0 | 1.6 | 0.00 | 0.20 | 0.10 | 86 | 1013.6 |
| 20260509141020 | 19 | 0 | 0.0 | 1.6 | 0.00 | 0.20 | 0.10 | 86 | 1013.5 |
| 20260509140519 | 18 | 0 | 0.0 | 1.6 | 0.00 | 0.20 | 0.10 | 86 | 1013.4 |
| 20260509140052 | 18 | 0 | 0.0 | 1.6 | 0.00 | 0.20 | 0.10 | 86 | 1013.5 |
| 20260509135520 | 18 | 0 | 0.0 | 1.6 | 0.00 | 0.23 | 0.10 | 86 | 1013.6 |
| 20260509135020 | 18 | 0 | 0.0 | 1.6 | 0.00 | 0.23 | 0.10 | 86 | 1013.5 |
| 20260509134532 | 18 | 0 | 0.0 | 0.0 | 0.00 | 0.23 | 0.10 | 86 | 1013.6 |
| 20260509134021 | 18 | 0 | 0.0 | 0.0 | 0.00 | 0.23 | 0.10 | 86 | 1013.6 |
| 20260509133519 | 18 | 0 | 0.0 | 0.0 | 0.00 | 0.23 | 0.10 | 86 | 1013.6 |
| 20260509133039 | 18 | 0 | 0.0 | 0.0 | 0.00 | 0.23 | 0.10 | 86 | 1013.6 |
| 20260509132522 | 18 | 0 | 0.0 | 4.8 | 0.00 | 0.23 | 0.10 | 87 | 1013.7 |
| 20260509132020 | 18 | 0 | 0.0 | 4.8 | 0.00 | 0.23 | 0.10 | 87 | 1013.7 |
| 20260509131538 | 18 | 0 | 0.0 | 4.8 | 0.00 | 0.23 | 0.10 | 88 | 1013.6 |
| 20260509131022 | 18 | 0 | 0.0 | 3.2 | 0.00 | 0.23 | 0.10 | 89 | 1013.5 |
| 20260509130519 | 18 | 0 | 0.0 | 3.2 | 0.00 | 0.23 | 0.10 | 89 | 1013.6 |
| 20260509130038 | 17 | 0 | 0.0 | 0.0 | 0.00 | 0.23 | 0.10 | 89 | 1013.5 |
| 20260509125519 | 17 | 0 | 0.0 | 0.0 | 0.00 | 0.25 | 0.10 | 90 | 1013.4 |
| 20260509125021 | 17 | 0 | 0.0 | 1.6 | 0.00 | 0.25 | 0.10 | 91 | 1013.5 |
| 20260509124536 | 17 | 0 | 0.0 | 1.6 | 0.00 | 0.25 | 0.10 | 91 | 1013.4 |
| 20260509124019 | 17 | 0 | 0.0 | 1.6 | 0.00 | 0.25 | 0.10 | 91 | 1013.3 |
| 20260509123519 | 16 | 0 | 0.0 | 1.6 | 0.00 | 0.25 | 0.10 | 91 | 1013.3 |
| 20260509123037 | 16 | 0 | 0.0 | 1.6 | 0.00 | 0.25 | 0.10 | 91 | 1013.5 |
| 20260509122519 | 16 | 0 | 0.0 | 0.0 | 0.00 | 0.25 | 0.10 | 91 | 1013.5 |
| 20260509122020 | 16 | 0 | 0.0 | 0.0 | 0.00 | 0.25 | 0.10 | 91 | 1013.5 |
| 20260509121534 | 16 | 0 | 0.0 | 1.6 | 0.00 | 0.25 | 0.10 | 91 | 1013.7 |
| 20260509121020 | 16 | 0 | 0.0 | 1.6 | 0.00 | 0.25 | 0.10 | 91 | 1013.9 |
| 20260509120523 | 16 | 0 | 0.0 | 1.6 | 0.00 | 0.25 | 0.10 | 91 | 1013.9 |
| 20260509120033 | 16 | 0 | 0.0 | 1.6 | 0.03 | 0.25 | 0.10 | 91 | 1013.9 |
| 20260509115520 | 16 | 0 | 0.0 | 0.0 | 0.03 | 0.25 | 0.10 | 91 | 1014.0 |
| 20260509115019 | 15 | 0 | 0.0 | 0.0 | 0.03 | 0.25 | 0.10 | 91 | 1014.1 |
| 20260509114538 | 15 | 0 | 0.0 | 0.0 | 0.03 | 0.25 | 0.10 | 91 | 1014.0 |
| 20260509114020 | 15 | 0 | 0.0 | 0.0 | 0.03 | 0.25 | 0.10 | 91 | 1014.0 |
| 20260509113519 | 15 | 0 | 0.0 | 0.0 | 0.03 | 0.25 | 0.10 | 91 | 1014.0 |
| 20260509113036 | 15 | 0 | 0.0 | 0.0 | 0.03 | 0.25 | 0.10 | 90 | 1014.1 |
| 20260509112520 | 15 | 0 | 0.0 | 0.0 | 0.03 | 0.25 | 0.10 | 90 | 1014.2 |
| 20260509112022 | 15 | 0 | 0.0 | 0.0 | 0.03 | 0.25 | 0.10 | 90 | 1014.3 |
| 20260509111536 | 15 | 0 | 0.0 | 1.6 | 0.03 | 0.25 | 0.10 | 90 | 1014.1 |
| 20260509111022 | 15 | 0 | 0.0 | 1.6 | 0.03 | 0.25 | 0.10 | 90 | 1014.0 |
| 20260509110519 | 15 | 0 | 0.0 | 0.0 | 0.03 | 0.25 | 0.10 | 90 | 1013.9 |
| 20260509110035 | 15 | 0 | 0.0 | 0.0 | 0.00 | 0.23 | 0.08 | 90 | 1013.9 |
| 20260509105519 | 15 | 0 | 0.0 | 1.6 | 0.00 | 0.23 | 0.08 | 90 | 1014.0 |
| 20260509105023 | 15 | 0 | 0.0 | 1.6 | 0.00 | 0.23 | 0.08 | 89 | 1013.9 |
| 20260509104535 | 15 | 0 | 0.0 | 0.0 | 0.00 | 0.23 | 0.08 | 89 | 1013.8 |
| 20260509104020 | 15 | 0 | 0.0 | 0.0 | 0.00 | 0.23 | 0.08 | 89 | 1013.7 |
| 20260509103522 | 15 | 0 | 0.0 | 0.0 | 0.00 | 0.23 | 0.08 | 89 | 1013.5 |
| 20260509103046 | 15 | 0 | 0.0 | 0.0 | 0.00 | 0.23 | 0.08 | 89 | 1013.4 |
| 20260509102519 | 15 | 0 | 0.0 | 0.0 | 0.00 | 0.23 | 0.08 | 89 | 1013.2 |
| 20260509102023 | 15 | 0 | 0.0 | 0.0 | 0.00 | 0.23 | 0.08 | 88 | 1013.2 |
| 20260509101540 | 15 | 0 | 0.0 | 0.0 | 0.00 | 0.23 | 0.08 | 88 | 1013.3 |
| 20260509101022 | 15 | 0 | 0.0 | 0.0 | 0.03 | 0.23 | 0.08 | 88 | 1013.3 |
| 20260509100519 | 15 | 0 | 0.0 | 0.0 | 0.03 | 0.23 | 0.08 | 88 | 1013.3 |
| 20260509100038 | 15 | 0 | 0.0 | 0.0 | 0.03 | 0.23 | 0.08 | 88 | 1013.3 |
| 20260509095522 | 15 | 0 | 0.0 | 0.0 | 0.03 | 0.25 | 0.08 | 88 | 1012.9 |
| 20260509095026 | 15 | 0 | 0.0 | 0.0 | 0.03 | 0.25 | 0.08 | 88 | 1012.8 |
| 20260509094536 | 15 | 0 | 0.0 | 0.0 | 0.03 | 0.25 | 0.08 | 88 | 1012.7 |
| 20260509094019 | 15 | 0 | 0.0 | 1.6 | 0.03 | 0.25 | 0.08 | 88 | 1012.8 |
| 20260509093520 | 15 | 0 | 0.0 | 1.6 | 0.03 | 0.25 | 0.08 | 87 | 1012.6 |
| 20260509093039 | 15 | 0 | 0.0 | 1.6 | 0.03 | 0.25 | 0.08 | 87 | 1012.8 |
| 20260509092519 | 15 | 0 | 0.0 | 0.0 | 0.03 | 0.25 | 0.08 | 87 | 1012.8 |
| 20260509092019 | 15 | 0 | 0.0 | 0.0 | 0.03 | 0.25 | 0.08 | 87 | 1012.9 |
| 20260509091548 | 15 | 0 | 0.0 | 0.0 | 0.03 | 0.25 | 0.08 | 87 | 1012.7 |
| 20260509091023 | 15 | 0 | 0.0 | 0.0 | 0.00 | 0.23 | 0.05 | 87 | 1012.7 |
| 20260509090518 | 15 | 0 | 0.0 | 0.0 | 0.00 | 0.23 | 0.05 | 87 | 1012.8 |
| 20260509090050 | 15 | 0 | 0.0 | 0.0 | 0.00 | 0.23 | 0.05 | 87 | 1012.8 |
| 20260509085520 | 15 | 0 | 0.0 | 1.6 | 0.00 | 0.25 | 0.05 | 87 | 1012.8 |
| 20260509085019 | 15 | 0 | 0.0 | 1.6 | 0.00 | 0.25 | 0.05 | 87 | 1012.9 |
| 20260509084536 | 15 | 0 | 0.0 | 1.6 | 0.00 | 0.25 | 0.05 | 87 | 1012.9 |
| 20260509084019 | 15 | 0 | 0.0 | 0.0 | 0.00 | 0.25 | 0.05 | 87 | 1012.9 |
| 20260509083519 | 15 | 0 | 0.0 | 0.0 | 0.00 | 0.25 | 0.05 | 87 | 1013.0 |
| 20260509083042 | 15 | 0 | 0.0 | 0.0 | 0.00 | 0.25 | 0.05 | 87 | 1013.1 |
| 20260509082521 | 15 | 0 | 0.0 | 0.0 | 0.00 | 0.25 | 0.05 | 86 | 1013.2 |
| 20260509082020 | 15 | 0 | 0.0 | 0.0 | 0.00 | 0.25 | 0.05 | 86 | 1013.2 |
| 20260509081540 | 15 | 0 | 0.0 | 0.0 | 0.00 | 0.25 | 0.05 | 86 | 1013.2 |
| 20260509081020 | 15 | 0 | 0.0 | 0.0 | 0.00 | 0.25 | 0.05 | 86 | 1013.2 |
| 20260509080524 | 15 | 0 | 0.0 | 0.0 | 0.00 | 0.25 | 0.05 | 86 | 1013.2 |
| 20260509080046 | 15 | 0 | 0.0 | 0.0 | 0.00 | 0.25 | 0.05 | 86 | 1013.3 |
| 20260509075522 | 15 | 0 | 0.0 | 0.0 | 0.00 | 0.25 | 0.05 | 86 | 1013.3 |
| 20260509075022 | 15 | 0 | 0.0 | 0.0 | 0.00 | 0.25 | 0.05 | 86 | 1013.4 |
| 20260509074550 | 15 | 0 | 0.0 | 1.6 | 0.00 | 0.25 | 0.05 | 86 | 1013.4 |
| 20260509074025 | 15 | 0 | 0.0 | 1.6 | 0.00 | 0.25 | 0.05 | 85 | 1013.5 |
| 20260509073522 | 15 | 0 | 0.0 | 0.0 | 0.00 | 0.25 | 0.05 | 85 | 1013.5 |
| 20260509073054 | 15 | 0 | 0.0 | 0.0 | 0.00 | 0.25 | 0.05 | 85 | 1013.5 |
| 20260509072522 | 15 | 0 | 0.0 | 0.0 | 0.00 | 0.25 | 0.05 | 85 | 1013.7 |
| 20260509072018 | 15 | 0 | 0.0 | 0.0 | 0.00 | 0.25 | 0.05 | 85 | 1013.8 |
| 20260509071535 | 15 | 0 | 0.0 | 0.0 | 0.00 | 0.25 | 0.05 | 84 | 1013.8 |
| 20260509071019 | 15 | 0 | 0.0 | 0.0 | 0.00 | 0.25 | 0.05 | 84 | 1013.9 |
| 20260509070519 | 16 | 0 | 0.0 | 0.0 | 0.00 | 0.25 | 0.05 | 84 | 1013.9 |
| 20260509070036 | 16 | 0 | 0.0 | 0.0 | 0.00 | 0.25 | 0.05 | 84 | 1014.0 |
| 20260509065524 | 16 | 0 | 0.0 | 0.0 | 0.00 | 0.25 | 0.05 | 83 | 1013.8 |
| 20260509065022 | 16 | 0 | 0.0 | 0.0 | 0.00 | 0.25 | 0.05 | 83 | 1013.9 |
| 20260509064540 | 16 | 0 | 0.0 | 0.0 | 0.00 | 0.25 | 0.05 | 83 | 1013.8 |
| 20260509064020 | 16 | 0 | 0.0 | 0.0 | 0.03 | 0.25 | 0.05 | 83 | 1013.9 |
| 20260509063519 | 16 | 0 | 0.0 | 0.0 | 0.03 | 0.25 | 0.05 | 83 | 1013.9 |
| 20260509063052 | 16 | 0 | 0.0 | 0.0 | 0.03 | 0.25 | 0.05 | 83 | 1013.9 |
| 20260509062526 | 16 | 0 | 0.0 | 3.2 | 0.03 | 0.25 | 0.05 | 83 | 1013.8 |
| 20260509062021 | 16 | 0 | 0.0 | 3.2 | 0.03 | 0.25 | 0.05 | 83 | 1014.1 |
| 20260509061537 | 16 | 0 | 0.0 | 3.2 | 0.03 | 0.25 | 0.05 | 83 | 1014.4 |
| 20260509061023 | 16 | 0 | 0.0 | 0.0 | 0.03 | 0.25 | 0.05 | 82 | 1014.4 |
| 20260509060524 | 16 | 0 | 0.0 | 0.0 | 0.03 | 0.25 | 0.05 | 83 | 1014.6 |
| 20260509060048 | 16 | 0 | 0.0 | 0.0 | 0.03 | 0.25 | 0.05 | 83 | 1014.6 |
| 20260509055520 | 16 | 0 | 0.0 | 0.0 | 0.03 | 0.25 | 0.05 | 83 | 1014.7 |
| 20260509055025 | 16 | 0 | 0.0 | 0.0 | 0.03 | 0.25 | 0.05 | 83 | 1014.6 |
| 20260509054537 | 16 | 0 | 0.0 | 0.0 | 0.03 | 0.25 | 0.05 | 82 | 1014.7 |
| 20260509054020 | 16 | 0 | 0.0 | 0.0 | 0.00 | 0.23 | 0.03 | 82 | 1015.0 |
| 20260509053521 | 16 | 0 | 0.0 | 0.0 | 0.00 | 0.23 | 0.03 | 82 | 1015.2 |
| 20260509053052 | 16 | 0 | 0.0 | 0.0 | 0.00 | 0.23 | 0.03 | 81 | 1015.3 |
| 20260509052522 | 16 | 0 | 0.0 | 0.0 | 0.00 | 0.23 | 0.03 | 81 | 1015.4 |
| 20260509052020 | 16 | 0 | 0.0 | 0.0 | 0.00 | 0.23 | 0.03 | 81 | 1015.2 |
| 20260509051538 | 16 | 0 | 0.0 | 0.0 | 0.00 | 0.23 | 0.03 | 81 | 1015.2 |
| 20260509051021 | 16 | 0 | 0.0 | 0.0 | 0.00 | 0.23 | 0.03 | 81 | 1015.2 |
| 20260509050524 | 16 | 0 | 0.0 | 0.0 | 0.00 | 0.23 | 0.03 | 81 | 1015.3 |
| 20260509050038 | 16 | 0 | 0.0 | 0.0 | 0.03 | 0.23 | 0.03 | 80 | 1015.5 |
| 20260509045522 | 16 | 0 | 0.0 | 0.0 | 0.03 | 0.25 | 0.03 | 80 | 1015.6 |
| 20260509045019 | 16 | 0 | 0.0 | 0.0 | 0.03 | 0.25 | 0.03 | 79 | 1015.6 |
| 20260509044536 | 16 | 0 | 0.0 | 0.0 | 0.03 | 0.25 | 0.03 | 79 | 1015.5 |
| 20260509044023 | 16 | 0 | 0.0 | 0.0 | 0.03 | 0.25 | 0.03 | 79 | 1015.5 |
| 20260509043519 | 16 | 0 | 0.0 | 0.0 | 0.03 | 0.25 | 0.03 | 78 | 1015.3 |
| 20260509043047 | 16 | 0 | 0.0 | 0.0 | 0.03 | 0.25 | 0.03 | 79 | 1015.3 |
| 20260509042519 | 16 | 0 | 0.0 | 0.0 | 0.03 | 0.25 | 0.03 | 79 | 1015.2 |
| 20260509042022 | 16 | 0 | 0.0 | 0.0 | 0.03 | 0.25 | 0.03 | 78 | 1015.5 |
| 20260509041541 | 16 | 0 | 0.0 | 0.0 | 0.03 | 0.25 | 0.03 | 78 | 1015.8 |
| 20260509041021 | 16 | 0 | 0.0 | 0.0 | 0.03 | 0.25 | 0.03 | 77 | 1016.0 |
| 20260509040520 | 16 | 0 | 0.0 | 0.0 | 0.03 | 0.25 | 0.03 | 77 | 1015.9 |
| 20260509040058 | 16 | 0 | 0.0 | 0.0 | 0.00 | 0.23 | 0.00 | 76 | 1015.8 |
| 20260509035521 | 16 | 0 | 0.0 | 0.0 | 0.00 | 0.23 | 0.23 | 75 | 1016.1 |
| 20260509035020 | 16 | 0 | 0.0 | 0.0 | 0.00 | 0.23 | 0.23 | 74 | 1016.1 |